Regional Weather Roundup
Issued by NWS

Home | Current Version | Previous Version | Graphics & Text | Print | Product List | Glossary On
Versions: 1 2 3 4 5 6 7 8 9 10 11 12 13 14 15 16 17 18 19 20 21 22 23 24 25 26 27 28 29 30 31 32 33 34 35 36 37 38 39 40 41 42 43 44 45 46 47 48 49 50
000
ASUS43 KLMK 171510
RWRKY
KENTUCKY REGIONAL WEATHER ROUNDUP
NATIONAL WEATHER SERVICE LOUISVILLE KY
1000 AM EST SUN DEC 17 2017

NOTE "FAIR" INDICATES FEW OR NO CLOUDS BELOW 12,000 FEET
WITH NO SIGNIFICANT WEATHER AND/OR OBSTRUCTIONS TO VISIBILITY.

KYZ001>023-026-027-061>063-070>075-171600-
WESTERN AND SOUTH CENTRAL KENTUCKY

CITY           SKY/WX    TMP DP  RH WIND       PRES   REMARKS
PADUCAH        CLOUDY    41  37  86 S6        30.15R
HENDERSON      LGT RAIN  42  36  79 S7        30.14F
OWENSBORO      LGT RAIN  42  35  76 SE8       30.13F
HOPKINSVILLE   CLOUDY    41  37  87 S10       30.13F
BOWLING GREEN  CLOUDY    44  36  73 S8        30.18F
GLASGOW        LGT RAIN  43  33  66 S3        30.18F
$$

KYZ024-025-028>034-038-045-046-053-171600-
NORTH CENTRAL KENTUCKY

CITY           SKY/WX    TMP DP  RH WIND       PRES   REMARKS
LOUISVILLE/SDF CLOUDY    43  31  62 S10       30.17F
LOUISVILLE/LOU CLOUDY    44  32  62 S8        30.18F
FORT KNOX      LGT RAIN  42  31  64 S8        30.15S
$$

KYZ035>037-039>044-047>052-055>060-089>105-171600-
NORTHEAST KENTUCKY

CITY           SKY/WX    TMP DP  RH WIND       PRES   REMARKS
LEXINGTON      CLOUDY    43  30  60 S6        30.20F
COVINGTON      CLOUDY    40  32  73 S8        30.15F WCI  34
FRANKFORT      CLOUDY    43  29  57 S6        30.18F
$$

KYZ054-064>069-076>088-106>120-171600-
SOUTHEAST KENTUCKY

CITY           SKY/WX    TMP DP  RH WIND       PRES   REMARKS
JACKSON        CLOUDY    39  28  64 CALM      30.23S
LONDON         CLOUDY    37  30  75 SE3       30.24F
SOMERSET       CLOUDY    39  30  70 S5        30.24F
MIDDLESBORO    DRIZZLE   34  32  92 CALM      30.28F
MONTICELLO     CLOUDY    42  31  64 E6        30.24F
$$





USA.gov is the U.S. government's official web portal to all federal, state and local government web resources and services.